Terminal Aerodrome Forecast
Issued by NWS

Home | Current Version | Previous Version | Text Only | Print | Product List | Glossary On
Versions: 1 2 3 4 5 6 7 8 9 10 11 12 13 14 15 16 17 18 19 20 21
000
FTUS42 KTBW 021700
TAFRSW
TAF
KRSW 021735Z 0218/0318 12007KT P6SM SCT030
     FM022000 07008KT P6SM SCT040
     FM030100 VRB05KT P6SM FEW040
     FM030800 07004KT 3SM BR FEW005 BKN015
     FM031300 11010KT P6SM FEW030 SCT250=

USA.gov is the U.S. government's official web portal to all federal, state and local government web resources and services.